| time (UTC) | temp F | wind direction | speed MPH | gust MPH | rain 1hr in | rain 24hr in | rain mn in | humidity % | barometer mb |
| 20260506025527 | 74 | 0.0 | 0.0 | 0.00 | 0.00 | 0.00 | 90 | 1010.6 | |
| 20260506025513 | 74 | 0 | 0.0 | 0.0 | 0.00 | 0.00 | 0.00 | 89 | 1008.3 |
| 20260506024529 | 75 | 0.0 | 0.0 | 0.00 | 0.00 | 0.00 | 89 | 1010.3 | |
| 20260506023533 | 75 | 0.0 | 0.0 | 0.00 | 0.00 | 0.00 | 88 | 1010.1 | |
| 20260506022536 | 76 | 0.0 | 0.0 | 0.00 | 0.00 | 0.00 | 87 | 1009.9 | |
| 20260506022513 | 76 | 0 | 0.0 | 0.0 | 0.00 | 0.00 | 0.00 | 85 | 1007.3 |
| 20260506021518 | 77 | 0.0 | 0.0 | 0.00 | 0.00 | 0.00 | 85 | 1009.7 | |
| 20260506020520 | 77 | 68 | 0.0 | 1.0 | 0.00 | 0.00 | 0.00 | 83 | 1009.6 |
| 20260506020513 | 77 | 180 | 0.0 | 2.0 | 0.00 | 0.00 | 0.00 | 82 | 1006.9 |
| 20260506015523 | 78 | 113 | 0.0 | 2.0 | 0.00 | 0.00 | 0.00 | 82 | 1009.4 |
| 20260506014524 | 79 | 119 | 1.0 | 3.0 | 0.00 | 0.00 | 0.00 | 81 | 1009.3 |
| 20260506014513 | 79 | 165 | 1.0 | 3.0 | 0.00 | 0.00 | 0.00 | 79 | 1006.5 |
| 20260506013527 | 80 | 155 | 2.0 | 4.0 | 0.00 | 0.00 | 0.00 | 79 | 1009.1 |
| 20260506013513 | 79 | 173 | 2.0 | 4.0 | 0.00 | 0.00 | 0.00 | 78 | 1006.3 |
| 20260506012523 | 80 | 162 | 3.0 | 4.0 | 0.00 | 0.00 | 0.00 | 78 | 1009.0 |
| 20260506012513 | 80 | 153 | 1.0 | 4.0 | 0.00 | 0.00 | 0.00 | 76 | 1006.0 |
| 20260506012013 | 80 | 147 | 2.0 | 4.0 | 0.00 | 0.00 | 0.00 | 76 | 1006.0 |
| 20260506011541 | 81 | 148 | 3.0 | 4.0 | 0.00 | 0.00 | 0.00 | 76 | 1008.9 |
| 20260506011513 | 81 | 176 | 3.0 | 6.0 | 0.00 | 0.00 | 0.00 | 75 | 1005.8 |
| 20260506010901 | 81 | 152 | 4.0 | 6.0 | 0.00 | 0.00 | 0.00 | 74 | 1005.7 |
| 20260506010533 | 82 | 152 | 4.0 | 7.0 | 0.00 | 0.00 | 0.00 | 75 | 1008.8 |
| 20260506005530 | 83 | 155 | 4.0 | 8.0 | 0.00 | 0.00 | 0.00 | 73 | 1008.9 |
| 20260506004532 | 84 | 182 | 3.0 | 7.0 | 0.00 | 0.00 | 0.00 | 70 | 1008.8 |
| 20260506003901 | 85 | 137 | 2.0 | 5.0 | 0.00 | 0.00 | 0.00 | 67 | 1005.5 |
| 20260506003536 | 86 | 138 | 2.0 | 5.0 | 0.00 | 0.00 | 0.00 | 67 | 1008.9 |
| 20260506002518 | 86 | 162 | 2.0 | 4.0 | 0.00 | 0.00 | 0.00 | 65 | 1008.9 |
| 20260506001520 | 86 | 147 | 3.0 | 5.0 | 0.00 | 0.00 | 0.00 | 66 | 1008.9 |
| 20260506000901 | 85 | 191 | 3.0 | 3.0 | 0.00 | 0.00 | 0.00 | 66 | 1005.5 |
| 20260506000522 | 86 | 191 | 3.0 | 4.0 | 0.00 | 0.00 | 0.00 | 66 | 1008.9 |
| 20260505235524 | 86 | 200 | 2.0 | 6.0 | 0.00 | 0.00 | 0.00 | 65 | 1008.9 |
| 20260505234546 | 86 | 175 | 3.0 | 7.0 | 0.00 | 0.00 | 0.00 | 65 | 1009.0 |
| 20260505233901 | 86 | 170 | 3.0 | 6.0 | 0.00 | 0.00 | 0.00 | 64 | 1005.3 |
| 20260505233548 | 86 | 170 | 3.0 | 7.0 | 0.00 | 0.00 | 0.00 | 65 | 1008.8 |
| 20260505232530 | 86 | 141 | 4.0 | 8.0 | 0.00 | 0.00 | 0.00 | 64 | 1008.8 |
| 20260505231612 | 86 | 154 | 4.0 | 6.0 | 0.00 | 0.00 | 0.00 | 66 | 1008.8 |
| 20260505230901 | 85 | 155 | 4.0 | 5.0 | 0.00 | 0.00 | 0.00 | 66 | 1005.4 |
| 20260505230516 | 85 | 156 | 4.0 | 6.0 | 0.00 | 0.00 | 0.00 | 66 | 1008.8 |
| 20260505225518 | 85 | 189 | 5.0 | 7.0 | 0.00 | 0.00 | 0.00 | 67 | 1008.8 |
| 20260505224520 | 85 | 150 | 5.0 | 8.0 | 0.00 | 0.00 | 0.00 | 65 | 1008.8 |
| 20260505223901 | 86 | 134 | 4.0 | 8.0 | 0.00 | 0.00 | 0.00 | 64 | 1005.4 |
| 20260505223516 | 86 | 134 | 4.0 | 9.0 | 0.00 | 0.00 | 0.00 | 64 | 1008.9 |
| 20260505222524 | 86 | 170 | 3.0 | 6.0 | 0.00 | 0.00 | 0.00 | 64 | 1008.9 |
| 20260505221526 | 87 | 186 | 4.0 | 6.0 | 0.00 | 0.00 | 0.00 | 63 | 1008.9 |
| 20260505220901 | 86 | 187 | 3.0 | 4.0 | 0.00 | 0.00 | 0.00 | 63 | 1005.4 |
| 20260505220529 | 86 | 188 | 4.0 | 5.0 | 0.00 | 0.00 | 0.00 | 63 | 1008.9 |
| 20260505215531 | 87 | 207 | 4.0 | 5.0 | 0.00 | 0.00 | 0.00 | 62 | 1009.0 |
| 20260505214553 | 87 | 160 | 5.0 | 7.0 | 0.00 | 0.00 | 0.00 | 62 | 1009.0 |
| 20260505213901 | 87 | 182 | 5.0 | 9.0 | 0.00 | 0.00 | 0.00 | 61 | 1005.6 |
| 20260505213517 | 88 | 183 | 5.0 | 10.0 | 0.00 | 0.00 | 0.00 | 62 | 1009.1 |
| 20260505212558 | 87 | 147 | 3.0 | 6.0 | 0.00 | 0.00 | 0.00 | 63 | 1009.3 |
| 20260505211521 | 88 | 191 | 5.0 | 9.0 | 0.00 | 0.00 | 0.00 | 61 | 1009.3 |
| 20260505210901 | 88 | 213 | 3.0 | 6.0 | 0.00 | 0.00 | 0.00 | 60 | 1005.8 |
| 20260505210522 | 89 | 213 | 4.0 | 6.0 | 0.00 | 0.00 | 0.00 | 60 | 1009.6 |
| 20260505205545 | 88 | 176 | 6.0 | 8.0 | 0.00 | 0.00 | 0.00 | 61 | 1009.6 |
| 20260505204526 | 89 | 208 | 4.0 | 7.0 | 0.00 | 0.00 | 0.00 | 60 | 1009.6 |
| 20260505203901 | 87 | 137 | 6.0 | 10.0 | 0.00 | 0.00 | 0.00 | 61 | 1006.1 |
| 20260505203529 | 88 | 137 | 7.0 | 10.0 | 0.00 | 0.00 | 0.00 | 61 | 1009.7 |
| 20260505202525 | 87 | 151 | 5.0 | 10.0 | 0.00 | 0.00 | 0.00 | 62 | 1009.8 |
| 20260505201541 | 87 | 121 | 6.0 | 11.0 | 0.00 | 0.00 | 0.00 | 63 | 1009.9 |
| 20260505200901 | 87 | 116 | 4.0 | 8.0 | 0.00 | 0.00 | 0.00 | 62 | 1006.5 |
| 20260505200517 | 88 | 116 | 5.0 | 8.0 | 0.00 | 0.00 | 0.00 | 63 | 1010.1 |
| 20260505195519 | 87 | 146 | 6.0 | 9.0 | 0.00 | 0.00 | 0.00 | 64 | 1010.3 |
| 20260505194521 | 86 | 156 | 5.0 | 7.0 | 0.00 | 0.00 | 0.00 | 63 | 1010.3 |
| 20260505193901 | 86 | 171 | 5.0 | 7.0 | 0.00 | 0.00 | 0.00 | 63 | 1007.0 |
| 20260505193543 | 87 | 171 | 5.0 | 8.0 | 0.00 | 0.00 | 0.00 | 64 | 1010.5 |
| 20260505192525 | 86 | 175 | 5.0 | 8.0 | 0.00 | 0.00 | 0.00 | 65 | 1010.5 |
| 20260505191528 | 86 | 148 | 4.0 | 8.0 | 0.00 | 0.00 | 0.00 | 65 | 1010.6 |
| 20260505190901 | 84 | 178 | 5.0 | 7.0 | 0.00 | 0.00 | 0.00 | 65 | 1007.5 |
| 20260505190529 | 85 | 178 | 5.0 | 8.0 | 0.00 | 0.00 | 0.00 | 65 | 1010.8 |
| 20260505185551 | 85 | 220 | 4.0 | 9.0 | 0.00 | 0.00 | 0.00 | 65 | 1011.1 |
| 20260505184515 | 87 | 238 | 6.0 | 9.0 | 0.00 | 0.00 | 0.00 | 63 | 1011.3 |
| 20260505183901 | 85 | 143 | 4.0 | 6.0 | 0.00 | 0.00 | 0.00 | 65 | 1008.0 |
| 20260505183517 | 85 | 144 | 5.0 | 7.0 | 0.00 | 0.00 | 0.00 | 66 | 1011.4 |
| 20260505182539 | 85 | 143 | 5.0 | 8.0 | 0.00 | 0.00 | 0.00 | 67 | 1011.4 |
| 20260505181521 | 84 | 108 | 3.0 | 5.0 | 0.00 | 0.00 | 0.00 | 68 | 1011.5 |
| 20260505180901 | 83 | 132 | 3.0 | 6.0 | 0.00 | 0.00 | 0.00 | 68 | 1008.4 |
| 20260505180523 | 84 | 132 | 4.0 | 7.0 | 0.00 | 0.00 | 0.00 | 69 | 1011.7 |
| 20260505175526 | 83 | 182 | 4.0 | 7.0 | 0.00 | 0.00 | 0.00 | 68 | 1011.7 |
| 20260505174522 | 82 | 152 | 4.0 | 6.0 | 0.00 | 0.00 | 0.00 | 70 | 1011.8 |
| 20260505173901 | 82 | 205 | 3.0 | 6.0 | 0.00 | 0.00 | 0.00 | 70 | 1009.0 |
| 20260505173518 | 82 | 205 | 4.0 | 6.0 | 0.00 | 0.00 | 0.00 | 70 | 1012.0 |
| 20260505172532 | 81 | 198 | 6.0 | 10.0 | 0.00 | 0.00 | 0.00 | 72 | 1012.0 |
| 20260505171516 | 80 | 209 | 4.0 | 7.0 | 0.00 | 0.00 | 0.00 | 74 | 1012.0 |
| 20260505170901 | 78 | 191 | 5.0 | 7.0 | 0.00 | 0.00 | 0.00 | 77 | 1009.6 |
| 20260505170518 | 78 | 192 | 5.0 | 7.0 | 0.00 | 0.00 | 0.00 | 77 | 1012.2 |
| 20260505165520 | 77 | 205 | 4.0 | 5.0 | 0.00 | 0.00 | 0.00 | 79 | 1011.9 |
| 20260505164542 | 77 | 142 | 5.0 | 6.0 | 0.00 | 0.00 | 0.00 | 80 | 1012.0 |
| 20260505163901 | 75 | 223 | 4.0 | 7.0 | 0.00 | 0.00 | 0.00 | 81 | 1009.7 |
| 20260505163525 | 76 | 224 | 4.0 | 7.0 | 0.00 | 0.00 | 0.00 | 81 | 1012.0 |
| 20260505162526 | 74 | 204 | 4.0 | 5.0 | 0.00 | 0.00 | 0.00 | 86 | 1012.0 |
| 20260505161529 | 73 | 185 | 5.0 | 8.0 | 0.00 | 0.00 | 0.00 | 86 | 1011.9 |
| 20260505160901 | 73 | 219 | 4.0 | 5.0 | 0.00 | 0.00 | 0.00 | 87 | 1009.9 |
| 20260505160531 | 73 | 219 | 4.0 | 6.0 | 0.00 | 0.00 | 0.00 | 87 | 1011.9 |
| 20260505152522 | 72 | 180 | 3.0 | 6.0 | 0.00 | 0.00 | 0.00 | 91 | 1011.9 |
| 20260505151524 | 70 | 170 | 4.0 | 7.0 | 0.00 | 0.00 | 0.00 | 93 | 1011.9 |
| 20260505150901 | 70 | 189 | 4.0 | 6.0 | 0.00 | 0.00 | 0.00 | 93 | 1010.4 |
| 20260505150520 | 70 | 189 | 4.0 | 7.0 | 0.00 | 0.00 | 0.00 | 93 | 1012.2 |
| 20260505140521 | 68 | 174 | 4.0 | 7.0 | 0.00 | 0.00 | 0.00 | 99 | 1011.7 |
| 20260505124518 | 68 | 180 | 4.0 | 7.0 | 0.00 | 0.00 | 0.00 | 99 | 1011.1 |
| 20260505123901 | 67 | 180 | 3.0 | 6.0 | 0.00 | 0.00 | 0.00 | 99 | 1009.4 |
| 20260505123541 | 68 | 181 | 4.0 | 6.0 | 0.00 | 0.00 | 0.00 | 99 | 1010.9 |
| 20260505122517 | 68 | 191 | 5.0 | 9.0 | 0.00 | 0.00 | 0.00 | 99 | 1010.8 |
| 20260505121525 | 68 | 199 | 5.0 | 7.0 | 0.00 | 0.00 | 0.00 | 99 | 1010.7 |
| 20260505120901 | 68 | 181 | 4.0 | 7.0 | 0.00 | 0.00 | 0.00 | 98 | 1009.2 |
| 20260505120527 | 68 | 182 | 5.0 | 7.0 | 0.00 | 0.00 | 0.00 | 98 | 1010.7 |
| 20260505115529 | 68 | 185 | 5.0 | 8.0 | 0.00 | 0.00 | 0.00 | 98 | 1010.7 |
| 20260505114532 | 68 | 153 | 4.0 | 6.0 | 0.00 | 0.00 | 0.00 | 97 | 1010.3 |
| 20260505113901 | 68 | 157 | 3.0 | 7.0 | 0.00 | 0.00 | 0.00 | 97 | 1008.8 |
| 20260505113613 | 68 | 157 | 4.0 | 7.0 | 0.00 | 0.00 | 0.00 | 97 | 1010.3 |
| 20260505112537 | 68 | 143 | 4.0 | 7.0 | 0.00 | 0.00 | 0.00 | 97 | 1010.3 |
| 20260505111519 | 68 | 203 | 4.0 | 7.0 | 0.00 | 0.00 | 0.00 | 97 | 1010.3 |
| 20260505110901 | 68 | 174 | 2.0 | 5.0 | 0.00 | 0.00 | 0.00 | 97 | 1008.9 |
| 20260505110521 | 68 | 174 | 3.0 | 6.0 | 0.00 | 0.00 | 0.00 | 97 | 1010.5 |
| 20260505101545 | 68 | 153 | 6.0 | 10.0 | 0.00 | 0.00 | 0.00 | 97 | 1010.5 |
| 20260505100901 | 68 | 168 | 3.0 | 7.0 | 0.00 | 0.00 | 0.00 | 97 | 1009.0 |
| 20260505100515 | 68 | 169 | 4.0 | 7.0 | 0.00 | 0.00 | 0.00 | 97 | 1010.6 |
| 20260505095538 | 69 | 155 | 4.0 | 9.0 | 0.00 | 0.00 | 0.00 | 96 | 1010.6 |
| 20260505094520 | 69 | 134 | 4.0 | 8.0 | 0.00 | 0.00 | 0.00 | 96 | 1010.8 |
| 20260505093901 | 68 | 189 | 5.0 | 8.0 | 0.00 | 0.00 | 0.00 | 96 | 1009.3 |
| 20260505093542 | 69 | 189 | 5.0 | 8.0 | 0.00 | 0.00 | 0.00 | 96 | 1010.9 |
| 20260505092544 | 69 | 172 | 3.0 | 5.0 | 0.00 | 0.00 | 0.00 | 96 | 1010.8 |
| 20260505091526 | 69 | 169 | 5.0 | 7.0 | 0.00 | 0.00 | 0.00 | 96 | 1010.8 |
| 20260505090901 | 68 | 165 | 3.0 | 6.0 | 0.00 | 0.00 | 0.00 | 95 | 1009.1 |
| 20260505090528 | 69 | 165 | 4.0 | 6.0 | 0.00 | 0.00 | 0.00 | 95 | 1010.7 |
| 20260505085530 | 69 | 179 | 5.0 | 6.0 | 0.00 | 0.00 | 0.00 | 95 | 1010.9 |
| 20260505084532 | 69 | 151 | 4.0 | 7.0 | 0.00 | 0.00 | 0.00 | 95 | 1010.9 |
| 20260505083901 | 68 | 155 | 5.0 | 6.0 | 0.00 | 0.00 | 0.00 | 95 | 1009.4 |
| 20260505083516 | 69 | 156 | 5.0 | 6.0 | 0.00 | 0.00 | 0.00 | 95 | 1011.0 |
| 20260505082518 | 69 | 150 | 5.0 | 9.0 | 0.00 | 0.00 | 0.00 | 94 | 1011.0 |
| 20260505081521 | 69 | 181 | 6.0 | 9.0 | 0.00 | 0.00 | 0.00 | 94 | 1011.1 |
| 20260505080901 | 68 | 178 | 5.0 | 8.0 | 0.00 | 0.00 | 0.00 | 94 | 1009.5 |
| 20260505080523 | 69 | 179 | 5.0 | 8.0 | 0.00 | 0.00 | 0.00 | 94 | 1011.1 |
| 20260505075525 | 69 | 181 | 6.0 | 9.0 | 0.00 | 0.00 | 0.00 | 94 | 1011.2 |
| 20260505074547 | 69 | 159 | 5.0 | 11.0 | 0.00 | 0.00 | 0.00 | 94 | 1011.4 |
| 20260505073901 | 68 | 171 | 5.0 | 9.0 | 0.00 | 0.00 | 0.00 | 94 | 1010.0 |
| 20260505073523 | 69 | 171 | 6.0 | 9.0 | 0.00 | 0.00 | 0.00 | 94 | 1011.7 |
| 20260505072519 | 69 | 145 | 4.0 | 8.0 | 0.00 | 0.00 | 0.00 | 94 | 1011.6 |
| 20260505071515 | 69 | 177 | 5.0 | 7.0 | 0.00 | 0.00 | 0.00 | 94 | 1011.5 |
| 20260505070901 | 68 | 170 | 4.0 | 7.0 | 0.00 | 0.00 | 0.00 | 94 | 1010.1 |
| 20260505070519 | 69 | 170 | 5.0 | 7.0 | 0.00 | 0.00 | 0.00 | 94 | 1011.7 |
| 20260505065520 | 69 | 139 | 5.0 | 9.0 | 0.00 | 0.00 | 0.00 | 94 | 1011.8 |
| 20260505064522 | 69 | 168 | 3.0 | 5.0 | 0.00 | 0.00 | 0.00 | 94 | 1012.0 |
| 20260505063901 | 68 | 158 | 3.0 | 6.0 | 0.00 | 0.00 | 0.00 | 94 | 1010.7 |
| 20260505063525 | 69 | 159 | 4.0 | 6.0 | 0.00 | 0.00 | 0.00 | 94 | 1012.2 |
| 20260505062547 | 69 | 177 | 4.0 | 6.0 | 0.00 | 0.00 | 0.00 | 94 | 1012.2 |
| 20260505061529 | 68 | 160 | 4.0 | 6.0 | 0.00 | 0.00 | 0.00 | 94 | 1012.2 |
| 20260505060901 | 68 | 184 | 2.0 | 4.0 | 0.00 | 0.00 | 0.00 | 93 | 1010.9 |
| 20260505060531 | 68 | 184 | 3.0 | 4.0 | 0.00 | 0.00 | 0.00 | 93 | 1012.4 |
| 20260505055515 | 68 | 148 | 2.0 | 4.0 | 0.00 | 0.00 | 0.00 | 93 | 1012.2 |
| 20260505054518 | 68 | 170 | 3.0 | 4.0 | 0.00 | 0.00 | 0.00 | 92 | 1012.4 |
| 20260505053901 | 68 | 174 | 2.0 | 4.0 | 0.00 | 0.00 | 0.00 | 90 | 1010.8 |
| 20260505053520 | 68 | 174 | 2.0 | 5.0 | 0.00 | 0.00 | 0.00 | 91 | 1012.4 |
| 20260505052522 | 69 | 150 | 2.0 | 3.0 | 0.00 | 0.00 | 0.00 | 90 | 1012.4 |
| 20260505051524 | 69 | 149 | 2.0 | 5.0 | 0.00 | 0.00 | 0.00 | 89 | 1012.4 |
| 20260505050901 | 69 | 150 | 2.0 | 5.0 | 0.00 | 0.00 | 0.00 | 88 | 1011.0 |
| 20260505050526 | 69 | 150 | 3.0 | 5.0 | 0.00 | 0.00 | 0.00 | 88 | 1012.6 |
| 20260505041552 | 70 | 168 | 3.0 | 4.0 | 0.00 | 0.00 | 0.00 | 84 | 1012.4 |
| 20260505040901 | 70 | 165 | 2.0 | 6.0 | 0.00 | 0.00 | 0.00 | 84 | 1010.6 |
| 20260505040516 | 71 | 166 | 2.0 | 7.0 | 0.00 | 0.00 | 0.00 | 84 | 1012.4 |
| 20260505035518 | 71 | 184 | 2.0 | 4.0 | 0.00 | 0.00 | 0.00 | 84 | 1012.4 |
| 20260505034520 | 71 | 164 | 3.0 | 6.0 | 0.00 | 0.00 | 0.00 | 84 | 1012.2 |
| 20260505033901 | 70 | 153 | 2.0 | 7.0 | 0.00 | 0.00 | 0.00 | 84 | 1010.4 |
| 20260505033522 | 71 | 154 | 3.0 | 7.0 | 0.00 | 0.00 | 0.00 | 84 | 1012.2 |
| 20260505032525 | 71 | 198 | 3.0 | 5.0 | 0.00 | 0.00 | 0.00 | 84 | 1012.1 |
| 20260505031526 | 71 | 179 | 3.0 | 5.0 | 0.00 | 0.00 | 0.00 | 83 | 1012.0 |
| 20260505030901 | 71 | 168 | 3.0 | 6.0 | 0.00 | 0.00 | 0.00 | 83 | 1010.2 |
| 20260505030549 | 71 | 168 | 4.0 | 7.0 | 0.00 | 0.00 | 0.00 | 83 | 1012.0 |